Regional Weather Roundup
Issued by NWS Wakefield, VA

Home | Current Version | Previous Version | Graphics & Text | Print | Product List | Glossary On
Versions: 1 2 3 4 5 6 7 8 9 10 11 12 13 14 15 16 17 18 19 20 21 22 23 24 25 26 27
000
ASUS41 KAKQ 232114
RWRAKQ

REGIONAL WEATHER ROUNDUP
NATIONAL WEATHER SERVICE WAKEFIELD VA
500 PM EDT THU MAR 23 2017

Note: "fair" indicates few or no clouds below 12,000 feet with no
significant weather and/or obstructions to visibility. * = Denotes
station may not report precipitation (e.g., rain,snow,etc.),
thunder or fog.

VAZ042-051-052>054-056-232200-
NORTHERN VIRGINIA

CITY           SKY/WX    TMP DP  RH WIND       PRES   REMARKS
WASH NATIONAL  MOSUNNY   47   5  18 E6        30.55F
DULLES         MOSUNNY   48   5  17 VRB7      30.52F
FORT BELVOIR   SUNNY     47   7  19 CALM      30.54F
QUANTICO       MOSUNNY   47  21  35 S9        30.56F
FREDERICKSBRG* SUNNY     50  14  23 SE3       30.53F
STAFFORD*      SUNNY     48   8  19 SW3       30.57F
WARRENTON      SUNNY     51  -6   9 CALM      30.51F
CULPEPER*      SUNNY     50  10  20 CALM      30.53F
MANASSAS*      SUNNY     49   9  19 SW8       30.53F
LEESBURG*      SUNNY     50  14  23 S7        30.52F
WINCHESTER     SUNNY     46  12  25 CALM      30.48F
FRONT ROYAL*   CLEAR     50  14  23 E3        30.46F
LURAY*         CLEAR     52  19  28 S5        30.46F
$$

VAZ048-049-060>072-079>083-232200-
CENTRAL AND SOUTH CENTRAL VIRGINIA

CITY           SKY/WX    TMP DP  RH WIND       PRES   REMARKS
RICHMOND       MOSUNNY   49  13  23 S8        30.54F
CHESTERFIELD*  FAIR      50  10  20 SE10      30.55F
PETERSBURG*    SUNNY     49   8  19 E5        30.55F
HANOVER        SUNNY     49  11  21 CALM      30.56F
TAPPAHANNOCK*  SUNNY     49  -9   8 E8        30.55F
QUINTON*       FAIR      49   9  20 S6        30.54F
CHARLOTTSVILLE SUNNY     51  12  21 CALM      30.50F
GORDONSVILLE*  CLEAR     49  12  22 CALM      30.51F
ORANGE*        SUNNY     48  10  21 CALM      30.52F
LOUISA*        SUNNY     54  16  22 W3        30.51F
BUMPASS*       FAIR      49  13  22 SW7       30.53S
FARMVILLE*     SUNNY     53  16  22 S3        30.52S
CREWE*         FAIR      51  16  24 S3        30.53S
FORT PICKETT*  NOT AVBL
CHASE CITY*    FAIR      52  14  21 SE6       30.53S
CLARKSVILLE*   FAIR      52  18  25 E5        30.53F
SOUTH HILL*    SUNNY     50  17  26 S5        30.59F
LAWRENCEVILLE* FAIR      51  11  20 E3        30.54F
EMPORIA*       SUNNY     50  16  25 S7        30.56F
$$

VAZ088>098-232200-
SOUTHEAST VIRGINIA

CITY           SKY/WX    TMP DP  RH WIND       PRES   REMARKS
NORFOLK        SUNNY     42  23  46 NE8       30.58F
VIRGINIA BEACH SUNNY     40  20  44 E8        30.59F
NORFOLK NAVAL  MOSUNNY   43  18  36 NE8       30.60F
WEST POINT*    SUNNY     48   4  16 CALM      30.57F
SALUDA*        FAIR      39  18  42 E8        30.58F
NEWPORT NEWS   SUNNY     44   9  23 E5        30.58F
LANGLEY AFB    SUNNY     42  18  37 VRB6      30.58F
FORT EUSTIS    SUNNY     46  16  30 S10       30.55F
WILLIAMSBURG*  SUNNY     48  19  32 S8        30.58F
HR EXEC AP*    FAIR      46  12  25 NE5       30.56F
FRANKLIN*      SUNNY     47  15  27 NE3       30.58F
US460-WAKEFLD  SUNNY     49  18  29 VRB6      30.56F
$$

VAZ020-022-025-037-045-232200-
WEST CENTRAL AND SOUTHWEST VIRGINIA

CITY           SKY/WX    TMP DP  RH WIND       PRES   REMARKS
STAUNTON*      SUNNY     49  14  24 SE10      30.48F
WAYNESBORO*    CLEAR     48  14  25 SE6       30.46F
HOT SPRINGS VA SUNNY     41   3  20 S10       30.40F
LYNCHBURG      SUNNY     50  14  23 MISG      30.51F
DANVILLE       SUNNY     53  17  24 E6        30.51F
SOUTH BOSTON*  FAIR      53  13  20 SE5       30.53S
MARTINSVILLE   SUNNY     55  15  20 S3        30.50F
ROANOKE        MOSUNNY   52  15  23 SE8       30.49F
BLACKSBURG     SUNNY     53  19  26 E7        30.45F
DUBLIN*        SUNNY     56  20  24 SE7       30.43S
MARION*        SUNNY     58  20  23 SE7       30.39F
HILLSVILLE*    SUNNY     49  20  31 SE10G16   30.41F
RICHLANDS*     FAIR      59  28  30 CALM      30.36S
WISE*          SUNNY     61  27  27 CALM      30.35F
ABINGDON*      SUNNY     64  27  25 SW9       30.35F
$$

MDZ021>025-VAZ099-100-232200-
SOUTHERN MARYLAND AND THE DELMARVA PENINSULA

CITY           SKY/WX    TMP DP  RH WIND       PRES   REMARKS
PATUXENT RIVER MOSUNNY   40  19  43 SE10      30.57F
BAY BRIDGE APT SUNNY     45  10  24 S7        30.56F
LEONARDTOWN    SUNNY     43  16  33 NE6       30.57F
DOVER          SUNNY     44  12  27 W13       30.54F
GEORGETOWN     SUNNY     45   6  20 W6        30.56F
EASTON         SUNNY     45  -2  14 CALM      30.60F
CAMBRIDGE      SUNNY     41   1  19 NW5       30.57F
SALISBURY      SUNNY     46   5  18 W6        30.56F
OCEAN CITY     SUNNY     36  19  50 SE6       30.58F
WALLOPS ISLAND SUNNY     40  23  50 S12       30.58F
ACCOMACK*      SUNNY     42  15  34 NW6       30.59S
$$

NCZ012>017-030>032-232200-
NORTH CENTRAL AND EASTERN NORTH CAROLINA

CITY           SKY/WX    TMP DP  RH WIND       PRES   REMARKS
ROANOKE RAPIDS FAIR      52  19  28 E3        30.55F
RALEIGH        MOSUNNY   55  16  21 VRB5      30.53F
ELIZABETH CITY SUNNY     44  23  43 E9        30.59F
AHOSKIE*         N/A     50  14  24 NE3       30.56F
EDENTON*       SUNNY     47  30  53 SE9G16    30.58F
CURRITUCK*     SUNNY     42  24  49 NE3       30.60F
KILL DEVIL HLS NOT AVBL
MANTEO         SUNNY     42  26  53 N13       30.60S
CAPE HATTERAS  SUNNY     45  29  53 NE12G21   30.58S
TARBORO*       NOT AVBL
GOLDSBORO      SUNNY     55  19  25 CALM      30.53S
WASHINGTON     SUNNY     50  26  40 E9        30.57S
GREENVILLE     SUNNY     52  19  28 E3        30.55S
NEW BERN       SUNNY     52  26  36 E7        30.56S
WILMINGTON     SUNNY     52  31  44 E9        30.55R
$$

VAZ048-232200-
ELSEWHERE

CITY           SKY/WX    TMP DP  RH WIND       PRES   REMARKS
HARRISBURG PA  MOSUNNY   45   6  20 W7        30.51F
BALTIMORE      MOSUNNY   48   5  17 VRB6      30.53F
ANNAPOLIS      SUNNY     41  20  43 SE12      30.56F
ANDREWS AFB    SUNNY     46   2  16 VRB3      30.52F
PHILADELPHIA   MOSUNNY   45   7  21 SW12      30.53F
HENDERSON NC   SUNNY     50  14  23 SE5       30.52F
GREENSBORO     PTSUNNY   55  17  22 VRB3      30.48F
ROCKY MOUNT    SUNNY     51  17  26 CALM      30.55F
$$

VAZ100-232200-
MARINE

STATION/POSITION TIME  TEMP    WIND        PRES    WAVE   SWELL
                       AIR SEA DIR/SP/G            HT/PER HT/PER
                 (UTC) (F)     (DEG/KT/KT) (MB)    (FT/S) (FT/S)
CAPE MAY NJ      2048   38 43  300/  3/  4 1034.7F
LEWES DE         2048   38 43   70/  5/  6 1034.9F
OCEAN-CITY-INLET 2048   36 42  130/  5/  6 1036.0F
WACHAPREAGUE VA  2048   39 49  170/  5/  8 1035.6F
THOMAS POINT MD  2100   39 44  140/  6/  7   N/A
GOOSES REEF MD   2050   39     190/  6/  8 1035.8F
COVE POINT MD    2048   37     180/ 10/ 11 1035.8F
SOLOMONS ISLAND  2048   39 45  110/  9/ 10   N/A
BISHOPS HEAD MD  2048   40 47  210/  3/  6 1035.7F
PINEY POINT MD   2048          160/  5/  6   N/A
POTOMAC MD       2050   38      90/  8/ 10 1034.9F
CAMBRIDGE MD     2048   40 44   20/  2/  3 1034.7F
LEWISETTA VA     2048   38 47  130/ 10/ 12 1035.2F
RAPPAHANNOCK LGT 2048          340/  2/  3 1036.5F
STINGRAY PT      2050   37      90/  6/  8 1035.9F
YORK RVR RNG VA  2048   37     140/  7/  9 1035.2F
YORKTOWN VA      2048   40 48   90/  9/ 10 1035.3F
JAMESTOWN VA     2050   44     140/  8/ 10   N/A
DOMINION TERM VA 2048   40     110/  6/  8 1035.9F
KIPTOPEKE VA     2048      47  260/  3/  5   N/A
CHES BAY BRIDGE  2048   37 47   80/  4/  6 1036.1F
CAPE HENRY VA    2048   37      80/  5/  8   N/A
WILLOUBY STN VA  2048   38      80/  5/  6 1036.8F
S CRANEY ISL VA  2048   41     360/  5/  6 1035.6F
CAPE HENRY BUOY  2042      46                N/A     4/ 6
CAPE CHARLES BUO 2051      46                N/A     3/ 6
OFFSHORE WE BUOY 2051      45                N/A     4/ 7   2/11
64NM E OF VA BCH 2050   38 50  360/ 10/ 14 1035.8F   5/ 7   5/ 7
DUCK PIER NC     2048   38 48   20/  9/ 12 1035.6F
44100 DUCK FRF   2005      47                N/A     5/ 7   2/11
44056 DUCK FRF   2030      48                N/A     5/ 7   2/11
OREGON INLET NC  2042   40 50   10/ 13/ 15 1035.8S
HATTERAS NC      2048   42 51   20/ 12/ 19 1035.1S
DIAMOND SHLS NC  2050   46 74   20/ 16/ 21 1034.8R   9/10   8/10
CAPE LOOKOUT NC  2000   45      30/ 15/ 18 1034.5F
$$




USA.gov is the U.S. government's official web portal to all federal, state and local government web resources and services.